Regional Weather Roundup
Issued by NWS Kansas City/Pleasant Hill, MO

Home | Current Version | Previous Version | Graphics & Text | Print | Product List | Glossary Off
Versions: 1 2 3 4 5 6 7 8 9 10 11 12 13 14 15 16 17 18 19 20 21 22 23 24 25 26 27 28 29 30 31 32 33 34 35 36 37 38 39 40 41 42 43 44 45 46 47 48 49 50

000
ASUS43 KEAX 301204
RWREAX

WEATHER ROUNDUP FOR EASTERN KANSAS AND NORTHWEST MISSOURI
NATIONAL WEATHER SERVICE KANSAS CITY/PLEASANT HILL MO
700 AM CDT SAT MAY 30 2015

KSZ040-057-103>105-MOZ028-029-037-043-301300-
...KANSAS CITY METROPOLITAN AREA...

CITY           SKY/WX    TMP DP  RH WIND       PRES   REMARKS
K.C. INTL      DRIZZLE   56  55  97 N15       30.05R FOG
6HR MIN TEMP:  56; 6HR MAX TEMP:  65; 6HR PCP:  0.01;

K.C. DOWNTOWN  CLOUDY    60  56  86 N14       30.03R
6HR MIN TEMP:  60; 6HR MAX TEMP:  67; 6HR PCP: TRACE;

LEES SUMMIT    CLOUDY    60  58  92 N12G22    30.02R
6HR MIN TEMP:  60; 6HR MAX TEMP:  65;

OLATHE - IXD   CLOUDY    57  56  96 N17       30.06R FOG
6HR MIN TEMP:  57; 6HR MAX TEMP:  65; 6HR PCP:  0.01;

OLATHE - OJC   DRIZZLE   58  57  97 N13       30.04R FOG
6HR MIN TEMP:  58; 6HR MAX TEMP:  65; 6HR PCP:  0.01;

LAWRENCE       CLOUDY    56  53  90 N14       30.08R

$$

MOZ001>008-011>017-020>025-030>033-038>040-044>046-053-054-301300-
...NORTHERN AND CENTRAL MISSOURI...

CITY           SKY/WX    TMP DP  RH WIND       PRES   REMARKS
ST. JOSEPH     CLOUDY    55  53  93 N16       30.06R
6HR MIN TEMP:  55; 6HR MAX TEMP:  66; 6HR PCP: TRACE;

MOSBY          CLOUDY    59  57  94 NW12      30.03R FOG
WARRENSBURG    CLOUDY    63  61  94 CALM      29.99R
WHITEMAN AFB   FOG       64  64 100 W2        29.97R VSB 1/4
CLINTON        CLOUDY    66  66 100 NW6       29.99R
SEDALIA        CLOUDY    66  64  93 NW5       29.98R
6HR MIN TEMP:  66; 6HR MAX TEMP:  67;

WARSAW         FOG       64  64 100 CALM      29.98R VSB<1/4
CHILLICOTHE      N/A     61  58  90 N8        30.01R
6HR MIN TEMP:  61; 6HR MAX TEMP:  66; 6HR PCP:  0.01;

KIRKSVILLE     HVY RAIN  65  64  97 NW6       29.98S FOG
6HR MIN TEMP:  64; 6HR MAX TEMP:  66; 6HR PCP:  0.04;


$$

MOZ041-047>049-056>058-063>065-088>090-097-301300-
...EASTERN AND SOUTHERN MISSOURI...

CITY           SKY/WX    TMP DP  RH WIND       PRES   REMARKS
ST. LOUIS INTL CLOUDY    70  66  87 CALM      29.94F
6HR MIN TEMP:  69; 6HR MAX TEMP:  71; 6HR PCP:  0.45;

SPIRIT OF STL  LGT RAIN  68  67  96 CALM      29.94S
COLUMBIA       LGT RAIN  67  65  93 N3        29.96R
JEFFERSON CITY LGT RAIN  67  65  93 CALM      29.94S
ROLLA          CLOUDY    64  64 100 SW3       29.95R
LEBANON        CLOUDY    64  63  94 CALM      29.98R
OSAGE BEACH    CLOUDY    64  63  94 CALM      29.96R
SPRINGFIELD    CLOUDY    66  64  93 W3        29.98R
BRANSON        CLOUDY    64  64 100 CALM      29.99R FOG
NEVADA         CLOUDY    63  63 100 W3        30.01R FOG
JOPLIN         FOG       64  64 100 NW6       30.02R VSB 3/4
WEST PLAINS    CLOUDY    65  62  90 N7        29.97R

$$

IAZ060-094-KSZ022-034>040-054-083-096-NEZ052-066-093-301300-
...KANSAS...SOUTHEAST NEBRASKA AND IOWA...

CITY           SKY/WX    TMP DP  RH WIND       PRES   REMARKS
TOPEKA         CLOUDY    55  53  93 NW9       30.10R
6HR MIN TEMP:  55; 6HR MAX TEMP:  66; 6HR PCP: TRACE;

EMPORIA        CLOUDY    54  53  97 NW14      30.10R FOG
CHANUTE        CLOUDY    60  59  96 N14       30.06R
WICHITA        CLOUDY    55  49  80 N20G29    30.13S
OMAHA          CLOUDY    52  48  86 N17G25    30.12R
LINCOLN        CLOUDY    52  45  77 N14       30.16R
FALLS CITY     CLOUDY    52  49  89 N13G24    30.10R
LAMONI         CLOUDY    58  53  84 N14       30.03R
DES MOINES     LGT RAIN  56  53  90 N9        30.04R FOG

$$



USA.gov is the U.S. government's official web portal to all federal, state and local government web resources and services.